Regional Weather Roundup
Issued by NWS San Diego, CA

Home | Current Version | Previous Version | Text Only | Print | Product List | Glossary On
Versions: 1 2 3 4 5 6 7 8 9 10 11 12 13 14 15 16 17 18 19 20 21 22 23 24 25 26 27 28
000
ASUS46 KSGX 191711
RWRSGX

SAN DIEGO HOURLY WEATHER ROUNDUP
NATIONAL WEATHER SERVICE SAN DIEGO CA
900 AM PST THU JAN 19 2017

NOTE: "FAIR" INDICATES FEW OR NO CLOUDS BELOW 12,000 FEET WITH NO
SIGNIFICANT WEATHER AND/OR OBSTRUCTIONS TO VISIBILITY.

CAZ042-043-060-061-PZZ750-775-191800-

GREATER SAN DIEGO AREA

CITY           SKY/WX    TMP DP  RH WIND       PRES   REMARKS
SAN DIEGO AP   LGT RAIN  59  55  87 SW15      30.01S
NATIONAL CITY    N/A     58  56  94 SW16      30.00S
CHULA VISTA      N/A     57  56  98 SW15      29.92R
IMPERIAL BEACH LGT RAIN  59  55  87 S13       30.01S FOG
BROWN FIELD    LGT RAIN  56  55  97 SW17G23   30.00S FOG
MIRAMAR MCAS   LGT RAIN  59  32  36 W18G31    29.98R
MONTGOMERY FLD LGT RAIN  56  54  93 SW13G21   29.99R FOG

$$

NORTH SAN DIEGO COUNTY

CITY           SKY/WX    TMP DP  RH WIND       PRES   REMARKS
CAMP PENDLETON LGT RAIN  58  57  97 SW10G16   29.96S
OCEANSIDE AP   LGT RAIN  59  59 100 SW15      29.97R
OCEANSIDE HBR    N/A     58  57  96 S12       30.00R
VISTA            N/A     56  51  84 SW5       29.96R
CARLSBAD       LGT RAIN  57  57 100 SW13      29.97R
DEL MAR          N/A     57  56  97 NW3       30.00S
LA JOLLA SCRIP   N/A     57  56  95 SE14      29.99R
FALLBROOK        N/A     55  55 100 SW3       29.95S
ESCONDIDO        N/A     55  54  95 SW8       29.99S
SAN MARCOS       N/A     55  52  88 W15       30.00S

$$

EAST SAN DIEGO COUNTY

CITY           SKY/WX    TMP DP  RH WIND       PRES   REMARKS
RAMONA         RAIN      51  51 100 W13       29.96S FOG
SANTEE LAKES     N/A     56  54  94 SE7       29.98S
LA MESA          N/A     55  53  96 S5        29.93R
JAMUL            N/A     53  52  95 CALM      30.01R
DESCANSO N       N/A     45  43  94 W6        29.93S
CAMPO            N/A     48  47  96 S16G26    29.93S

$$

ORANGE COUNTY AND THE LOS ANGELES BASIN

CITY           SKY/WX    TMP DP  RH WIND       PRES   REMARKS
JOHN WAYNE AP  MOSUNNY   58  55  90 W6        29.95R
LAGUNA BEACH     N/A     56  56  99 S1        29.91S
LAKE FOREST FR   N/A     54  51  90 W7        29.86R
LOS ALAMITOS   PTSUNNY   57  55  93 W8        29.95R
FULLERTON      PTSUNNY   58  56  93 NW6       29.94R
LONG BEACH     PTSUNNY   58  54  86 NW7       29.95R
L.A. AP        PTSUNNY   58  54  86 W8        29.95R
L.A. DOWNTOWN  CLOUDY    56  52  86 CALM      29.96R

$$

THE INLAND EMPIRE

CITY           SKY/WX    TMP DP  RH WIND       PRES   REMARKS
CORONA         CLOUDY    51  50  96 N5        29.96R
CHINO          CLOUDY    52  50  93 N6        29.96R
ONTARIO        LGT RAIN  50  49  96 N5        29.95R
SAN BERNARDINO HVY RAIN  52  46  82 CALM      29.94R
RIVERSIDE AP   LGT RAIN  51  50  96 W5        29.94R FOG
MORENO VALLEY    N/A     48  48 100 CALM      28.05R
MARCH ARB      LGT RAIN  49  49 100 S6        29.93R
HORSETHIEF CYN   N/A     49  46  89 NW7       29.95R
PERRIS           N/A     50  49  99 CALM      29.97S
HEMET EAST       N/A     48  44  88 CALM      30.01S
FRENCH VALLEY  NOT AVBL
TEMECULA         N/A     54  53  98 SW8       30.00S

$$

SAN BERNARDINO AND RIVERSIDE COUNTY MOUNTAINS

CITY           SKY/WX    TMP DP  RH WIND       PRES   REMARKS
BIG BEAR AP    LGT SNOW  32  32 100 W14G22    29.86F WCI  22
ANGELUS OAKS     N/A     35  33  92 CALM      29.88S
PINE COVE        N/A     35  36 100 N6        29.95F WCI  30

$$

SOUTHERN DESERT INCLUDING THE COACHELLA VALLEY

CITY           SKY/WX    TMP DP  RH WIND       PRES   REMARKS
PALM SPRINGS   LGT RAIN  51  50  96 SE6       29.96F FOG
PALM DESERT      N/A     54  50  86 CALM      30.48S
THERMAL        LGT RAIN  54  49  83 N3        29.94R
BLYTHE         MOSUNNY   55  47  74 S10       29.97S
IMPERIAL AP    SUNNY     56  51  84 E7        29.94S
EL CENTRO NAS  PTSUNNY   56  50  80 SE8       29.96R
YUMA AZ        CLOUDY    57  46  66 N7        29.99
MEXICALI       MOSUNNY   54  46  76 E9        29.96F

$$

UPPER DESERT

CITY           SKY/WX    TMP DP  RH WIND       PRES   REMARKS
VICTORVILLE AP CLOUDY    46  39  76 W9        29.90R
HESPERIA         N/A     47  43  87 SW10      30.03R
PALMDALE       CLOUDY    51  41  68 SW20      29.90R
LANCASTER      PTSUNNY   48  44  86 SW15      29.91R
EDWARDS AFB    MOSUNNY   46  46 100 S9        29.87R
DAGGETT        LGT RAIN  46  43  89 N7        29.90R
29 PALMS N     PTSUNNY   50  43  77 SE8       29.95F
NEEDLES        CLOUDY    54  45  71 N3        29.94R

$$

REGIONAL REPORTS

CITY           SKY/WX    TMP DP  RH WIND       PRES   REMARKS
SANTA BARBARA  MOSUNNY   55  52  89 W7        29.95R
SANDBERG       MOSUNNY   43  37  79 NW8       29.92R
LAS VEGAS NV   CLOUDY    51  39  63 S9        29.84S
PHOENIX AZ     CLOUDY    51  44  77 SE6       30.02R
TIJUANA        RAIN      55  52  88 S15       30.03R
ENSENADA NW      N/A     55  32  41 E1        30.04R

$$

OFFSHORE ISLANDS

CITY           SKY/WX    TMP DP  RH WIND       PRES   REMARKS
CATALINA ARPT  FOG       51  51 100 W18       29.97R VSB 1/4
SAN CLEMENTE I MOSUNNY   57  53  86 W15       30.00R
SAN NICOLAS IS MOSUNNY   57  53  86 W17       29.98R

$$

MARINE AND OFFSHORE BUOY REPORTS

STATION/POSITION SKY/WX   TEMP    WIND        PRES    VSBY  SWELL
                          AIR SEA DIR/SP/G                  HT/PER/DIR
                          (F)     (DEG/KT/KT) (MB)    (MI)  (FT/S/D)
TANNER BANKS               60 60  290/ 14/ 17 1015.9R         7/310/13
S CLEMENTE BASIN           60 61  270/ 17/ 21 1015.5R         3/280/13
SAN NICOLAS IS.               59                N/A           7/290/13
SO. S. ROSA ISLA           57 57  290/ 10/ 14 1015.1R        10/280/13
W. S. BARBARA CH           57 58  300/ 10/ 14 1014.8R        11/290/14
M. S. BARBARA CH                  280/ 10/ 12 1015.0R
S. MONICA BASIN            58 59  270/ 14/ 17 1014.5R         5/260/13
S PEDRO CHANNEL               60                N/A           3/270/13
CMP PENDLETON NS              59                N/A           2/250/13
OCEANSIDE OFFSHR              60                N/A           2/250/13
TORREY PINES OTR              60                N/A           3/290/13
POINT LOMA SOUTH              60                N/A           3/280/13

$$





USA.gov is the U.S. government's official web portal to all federal, state and local government web resources and services.